Location: Azul
(36.7830°S, 59.8500°W)
Time: 02:36:14
(UTC-03:00)

HuskySat-1 - Pass Details

Date: 26 October 2021
Orbit: 443 x 456 km, 51.6° (Epoch: 04 December)

Event Time Altitude Azimuth Distance (km) Brightness Sun altitude
Rises 19:59:35 0° 334° (NNW) 2,473 ? -7.1°
Reaches altitude 10° 20:01:52 10° 345° (NNW) 1,607 ? -7.5°
Maximum altitude 20:05:06 31° 48° (NE) 840 ? -8.1°
Drops below altitude 10° 20:08:23 10° 111° (ESE) 1,625 ? -8.7°
Sets 20:10:41 0° 121° (ESE) 2,506 ? -9.1°
